Reflectivity
-20 -20 -20 -20 -20 -20 -20 -20 -20 -20 -20 -20 -20 -20 -20 8 18 14 -1 -17 3 17 2 -16 21 9 9 18 17 7 -20 -20 -20 -20 -20 -20 -20 -20 -20 -0 1 -3 5
-20 -20 -20 -20 -20 -20 -20 -20 -20 -20 -20 -20 -20 -20 -20 -20 -20 -20 -20 -20 -20 -18 -5 21 25 12 21 17 21 22 -8 13 -2 -13 9 -20 -20 -20 -20 4 12 -17 -20
-20 -20 -20 -20 -20 -20 -20 -20 -20 -20 -20 -20 -20 -20 -20 -20 -20 -20 -20 -20 -20 -20 -20 6 3 22 24 21 17 20 20 -20 -19 -18 3 13 -20 1 -1 10 -20 -4 13
-20 -20 -20 -20 -20 -20 -20 -20 -20 -20 -20 -20 -20 -20 -20 -20 -20 -20 -20 -20 -20 -20 -20 -20 -20 -20 20 22 24 22 20 -12 -20 -16 -20 -14 -9 -17 17 -20 -20 -20 -19
-20 -20 -20 -20 -20 -20 -20 -20 -20 -20 -20 -20 -20 -20 -20 -20 -20 -20 -20 -20 -20 -20 -20 -20 -20 -20 -20 1 22 3 23 14 10 13 26 23 -12 13 14 -2 8 -20 -20
-20 -20 -20 -20 -20 -20 -20 -20 -20 -20 -20 -20 -20 -20 -20 -20 -20 -20 -20 -20 -20 -20 -20 -20 -20 -20 -20 -20 -20 -20 13 24 24 29 32 34 29 27 24 21 21 -20 -1
-20 -20 -20 -20 -20 -20 -20 -20 -20 -20 -20 -20 -20 -20 -20 -20 -20 -20 -20 -20 -20 -20 -20 -20 -20 -20 -20 -20 -20 -0 -20 1 24 38 32 25 40 41 40 27 22 -20 12
-20 -20 -20 -20 -20 -20 -20 -20 -20 -20 -20 -20 -20 -20 -20 -20 -20 -20 -20 -20 -20 -20 -20 -20 -20 -20 -20 -20 -20 -20 -20 -7 19 20 25 28 31 40 34 27 22 3 25
-20 -20 -20 -20 -20 -20 -20 -20 -20 -20 -20 -20 -20 -20 -15 -20 -20 -20 -20 -20 -20 -20 -20 -20 -20 -20 -20 -20 -20 -20 -20 -20 -16 7 23 24 25 26 27 16 16 22 27
-20 -20 -20 -20 -20 -20 -20 -20 -20 -20 -20 -20 -20 -20 -20 -15 -17 -20 -20 -20 -20 -20 -20 -20 -20 -20 -20 -20 -20 -20 2 -8 -17 11 25 29 30 30 24 25 27 27 32
-20 -20 -20 8 -3 -20 -20 -20 -20 -20 -20 -20 -20 -20 -20 -20 -20 8 -20 -20 -20 -20 -20 -20 17 11 -20 -20 2 -9 -20 10 13 17 27 5 28 28 28 21 28 28 34
-20 -20 -20 -20 8 10 -5 -20 -20 -20 -20 -20 -20 -20 -20 -13 -16 6 -6 -12 -20 -20 -20 -20 -2 -18 -20 -14 22 29 27 23 12 8 37 37 28 27 27 32 13 21 5
-20 -20 -20 -20 -20 2 -7 -3 -14 0 9 -13 -20 -20 -1 4 7 -7 -1 -16 -9 -20 -20 -20 -19 5 -20 -15 7 32 32 34 36 45 43 33 33 21 10 23 7 14 -11
-20 -20 -20 -20 -20 12 5 -20 10 5 5 -20 -18 9 6 -17 -20 -20 -1 8 -20 -20 -20 -16 -20 -20 -20 -20 9 8 30 15 23 27 40 24 35 33 24 -1 -12 -20 -7
-20 -20 -20 -20 -20 2 -20 -19 14 10 -0 -17 -20 -20 -20 -20 -20 -20 -20 2 6 14 -15 -20 -20 -20 -20 -20 0 -2 -20 25 14 -19 -20 4 -11 -0 -19 -20 -20 -20 -20
-20 -20 -20 -20 -20 -20 -20 -17 -3 -18 -20 -20 -20 -20 -20 -20 -20 -20 -20 -20 -20 13 15 -20 -20 -20 -19 -20 -2 -20 -17 7 8 -16 -5 -1 -12 -20 -20 -20 -20 -20 -20
-20 -20 -20 -20 -20 -20 -20 -20 -20 -20 -20 -20 -20 -20 -20 -20 -20 -20 -20 -20 -20 -20 -18 -20 -20 -20 -8 -9 -20 -20 -20 -20 -11 -9 -20 -20 -20 -20 -20 -20 -20 -20 -20
-20 -20 -20 -20 -20 -20 -20 -20 -20 -20 -20 -20 -20 -20 -20 -20 -20 -20 -20 -20 -20 -20 -20 -20 -13 -5 -20 -5 6 -20 -20 -20 -20 -20 -20 -20 -20 -20 -20 -20 -20 -20 -20
-20 -20 -20 -20 -20 -20 -20 -20 -20 -20 -20 -20 -20 -20 -20 -20 -20 -20 -20 -20 -20 -20 -20 -20 -20 -20 -17 -19 -20 -20 -20 -20 -20 1 -20 -20 -20 -20 -20 -20 -20 -20 -20
-20 -20 -20 -20 -20 -20 -20 -20 -20 -20 -20 -20 -20 -20 -20 -20 -20 -20 -20 -20 -20 -20 -20 -20 -20 -20 -20 -20 -20 -20 -20 -20 -20 -20 -20 -20 -20 -20 -20 -20 -20 -20 -20
-20 -20 -20 -20 -20 -20 -20 -20 -20 -20 -20 -20 -20 -20 -20 -20 -20 -20 -20 -20 -20 -20 -20 -20 -20 -20 -20 -20 -20 -20 -20 -20 -20 -20 -20 -20 -20 -20 -20 -20 -20 -20 -20
-20 -20 -20 -20 -20 -20 -20 -20 -20 -20 -20 -20 -20 -20 -20 -20 -20 -20 -20 -20 -20 -20 -20 -20 -20 -20 -20 -20 -20 -20 -20 -20 -20 -20 -20 -20 -20 -20 -20 -20 -20 -20 -20
-20 -20 -20 -20 -20 -20 -20 -20 -20 -20 -20 -20 -20 -20 -20 -20 -20 -20 -20 -20 -20 -20 -20 -20 -20 -20 -20 -20 -20 -20 -20 -20 -20 -20 -20 -20 -20 -20 -20 -20 -20 -20 -20
-20 -20 -20 -20 -20 -20 -20 -20 -20 -20 -20 -20 -20 -20 -20 -20 -20 -20 -20 -20 -20 -20 -20 -20 -20 -20 -20 -20 -20 -20 -20 -20 -20 -20 -20 -20 -20 -20 -20 -20 -17 -20 -20
-20 -20 -20 -20 -20 -20 -20 -20 -20 -20 -20 -20 -20 -20 -20 -20 -20 -20 -20 -20 -20 -20 -20 -20 -20 -20 -20 -20 -20 -20 -20 -20 -20 -20 -20 -20 -20 -20 -20 -20 -20 -20 -20
-20 -20 -20 -20 -20 -20 -20 -20 -20 -20 -20 -20 -20 -20 -20 -20 -20 -20 -20 -9 3 -20 -20 -20 -20 -20 -20 -20 -20 -20 -20 -20 -20 -20 -20 -20 -20 -20 -20 -20 -20 -20 -20
Wind_Speed
4 4 4 4 4 3 3 5 5 5 5 6 5 5 6 6 6 4 4 11 16 20 22 24 22 24 25 24 23 22 21 21 21 21 20 19 19 19 19 18 17 17 16
3 3 4 4 4 4 4 4 4 5 5 5 6 5 6 5 5 5 5 6 13 14 18 23 23 24 26 26 25 23 23 23 23 23 22 22 21 20 19 19 17 16 15
5 4 4 4 4 4 6 4 5 3 4 4 5 6 5 6 5 5 4 4 5 9 13 17 21 22 25 26 26 24 24 24 24 24 23 23 22 21 19 18 17 16 15
6 5 4 4 4 4 4 4 4 4 4 3 3 5 4 5 6 6 4 4 4 5 7 14 17 20 22 24 27 27 25 26 27 26 26 25 23 21 20 19 18 16 14
6 5 4 4 5 4 4 4 3 2 3 4 4 4 4 4 5 4 6 6 6 5 5 9 13 17 20 23 26 29 29 28 28 29 26 24 22 21 21 20 18 15 9
5 5 4 5 5 4 4 4 4 3 3 4 4 4 4 4 4 4 5 5 5 6 7 8 8 7 14 19 23 26 28 29 28 24 25 23 20 22 23 20 16 13 12
5 5 3 5 6 4 5 5 3 4 3 2 2 4 3 5 4 3 4 4 5 6 6 7 6 6 7 15 19 23 26 28 29 25 22 20 19 16 20 21 19 16 17
6 5 6 4 5 5 6 5 3 3 2 2 1 1 4 5 3 7 3 4 6 5 6 7 7 8 6 7 12 19 21 25 26 28 19 18 15 27 28 22 19 18 18
7 7 5 5 4 4 4 5 5 5 3 3 1 1 3 3 7 1 5 3 5 4 7 7 6 6 7 8 10 11 18 22 25 26 23 21 24 25 21 19 20 21 22
5 6 8 7 6 3 4 4 5 3 2 3 3 2 1 2 3 8 1 4 4 8 6 5 5 5 6 8 12 14 14 18 22 24 24 21 20 18 23 19 20 19 17
6 4 7 7 7 7 4 5 5 5 2 1 1 2 1 2 1 2 9 9 6 4 2 4 5 5 7 8 10 10 13 13 17 19 18 13 9 1 11 13 12 11 12
4 5 4 5 5 6 6 5 4 5 4 2 2 2 2 2 4 3 4 5 7 5 3 4 6 5 6 6 11 20 23 3 4 14 13 13 20 18 17 14 14 13 12
3 5 4 4 5 6 6 6 6 6 4 5 6 3 3 4 2 2 3 5 3 3 2 4 4 5 6 7 9 16 24 22 25 22 24 20 24 16 15 10 14 11 10
4 5 5 4 6 6 5 6 5 4 3 4 6 4 3 2 1 1 2 4 6 3 1 2 4 5 5 5 10 16 11 20 21 20 18 20 18 14 12 14 12 11 9
4 6 6 5 5 5 5 7 4 4 4 3 5 5 3 2 2 2 2 3 3 5 3 2 2 4 4 5 9 7 7 15 16 17 18 15 14 14 13 11 9 8 8
5 6 6 5 5 4 6 5 3 4 4 4 3 5 3 2 3 3 3 3 2 4 4 3 3 2 3 3 6 5 6 10 13 14 12 11 12 12 10 9 7 7 6
6 6 6 5 5 5 5 4 5 5 4 4 3 4 5 3 2 2 2 2 3 2 3 1 1 2 2 2 3 4 4 4 5 11 9 9 9 8 7 7 6 6 6
6 7 6 6 6 6 6 6 5 4 5 5 3 4 4 3 4 2 1 2 3 3 2 2 1 1 2 3 3 3 3 3 3 8 9 10 7 8 7 6 5 6 6
7 7 6 7 6 6 6 6 6 6 5 4 3 3 3 2 3 2 2 2 2 2 2 2 1 1 1 1 1 2 3 4 4 9 9 8 6 5 5 4 5 5 5
8 7 7 7 7 7 6 6 6 6 5 5 5 4 4 3 3 3 3 3 2 2 0 2 1 0 1 2 2 2 2 3 3 3 6 6 5 6 7 6 6 4 2
8 8 7 7 7 7 6 7 7 6 6 6 5 5 4 4 3 2 2 3 2 1 1 1 1 1 1 0 1 1 1 1 1 3 3 4 3 3 4 6 6 7 4
8 7 8 8 8 7 11 14 10 6 6 7 6 6 5 7 5 4 2 3 5 5 3 3 2 3 2 2 2 2 1 1 2 3 4 3 3 2 2 3 6 1 3
7 9 9 8 10 8 13 14 14 5 6 6 7 6 6 4 7 4 4 4 2 3 2 5 4 4 3 5 3 1 1 2 2 2 2 2 3 3 3 4 6 3 4
8 8 9 9 9 9 15 15 14 7 6 7 7 7 7 7 7 6 5 4 2 0 0 2 4 5 3 4 4 3 3 2 1 1 2 1 3 2 4 3 2 7 8
6 7 6 8 9 10 13 15 12 7 7 8 6 6 7 6 11 14 6 5 4 2 3 6 7 9 8 7 5 3 1 2 1 2 2 1 1 3 1 2 2 7 8
7 5 7 7 11 11 12 16 13 6 8 6 5 7 15 11 15 16 7 6 6 6 5 2 2 4 4 4 5 2 3 2 2 1 2 2 1 1 3 2 2 2 3
Wind_Direction
330 324 323 328 329 332 323 321 314 306 301 289 272 254 257 249 251 251 258 255 253 253 262 259 256 242 229 229 231 232 230 229 231 232 232 230 231 235 236 238 241 242 247
325 322 325 324 323 324 314 305 300 301 299 297 292 276 266 259 248 248 248 263 272 279 272 271 263 251 241 238 237 234 233 234 231 230 230 230 231 232 233 237 242 249 253
346 336 315 315 304 304 304 308 307 305 310 316 304 304 297 284 272 258 251 245 265 275 275 284 279 267 259 252 248 240 234 236 233 232 231 229 230 231 231 232 238 245 252
355 341 322 317 307 310 305 303 294 295 296 293 290 294 291 293 291 285 276 264 255 269 263 263 268 273 260 258 260 257 247 239 236 230 228 228 229 228 228 230 230 234 245
347 340 322 318 314 310 306 303 299 268 285 297 291 283 287 285 283 292 287 284 275 274 275 267 264 263 270 271 264 259 255 249 242 238 230 229 230 230 228 229 229 227 226
350 330 314 334 319 317 315 321 298 294 258 276 294 294 285 279 274 278 294 295 287 283 280 276 276 269 257 264 269 270 263 256 256 251 240 228 233 234 229 227 220 229 244
329 323 341 344 333 326 306 305 292 299 310 328 336 323 298 282 299 320 293 286 292 287 288 279 271 265 267 262 268 271 273 267 257 243 248 231 233 245 233 217 222 229 242
325 325 342 326 326 336 338 335 329 306 290 356 346 326 342 333 345 309 318 294 304 310 303 292 291 286 278 274 258 252 259 265 260 251 238 229 218 245 237 227 227 225 233
327 310 319 304 312 345 330 325 324 335 312 325 12 187 344 290 319 321 282 316 317 315 301 300 307 314 317 301 283 261 246 250 257 254 243 229 222 232 240 240 241 245 245
316 327 313 304 314 314 325 322 341 326 357 344 337 41 293 254 320 318 325 311 345 309 306 326 315 322 336 330 311 278 251 237 248 252 249 249 244 257 247 246 251 252 248
306 294 315 311 311 312 305 312 322 324 332 310 333 307 295 275 245 292 308 322 314 278 355 27 1 356 358 356 348 340 312 254 257 253 232 235 244 167 80 78 78 70 75
296 300 314 312 305 303 302 301 292 301 291 272 245 246 215 260 287 254 268 293 288 295 64 37 19 353 359 4 4 15 34 260 272 254 223 99 78 65 68 62 66 57 54
278 286 285 299 297 296 304 300 296 286 283 303 299 262 237 241 304 279 287 299 302 301 39 61 16 359 5 1 16 19 33 44 55 53 58 74 63 67 63 69 60 53 46
258 272 276 287 290 287 302 297 284 284 327 325 311 331 312 14 357 303 299 320 314 293 54 40 38 0 4 9 21 27 32 44 54 59 63 67 75 69 65 56 56 55 49
248 253 261 277 285 280 302 294 285 295 314 301 302 308 301 304 1 336 312 291 309 305 298 69 88 30 11 11 23 21 36 46 58 54 59 66 74 73 69 65 63 61 52
242 252 261 271 284 302 290 302 322 323 317 306 307 317 314 341 345 340 328 311 288 292 287 24 33 67 8 15 28 29 25 35 52 68 60 63 73 73 73 70 62 57 56
232 238 243 255 262 263 272 280 278 281 288 297 298 304 306 335 310 327 333 317 297 273 266 121 92 13 17 36 8 10 23 21 20 47 62 84 89 86 76 64 50 44 54
230 234 239 235 238 241 245 242 254 265 258 263 285 316 310 328 311 309 292 288 264 272 283 257 103 56 12 359 356 24 11 35 29 46 61 70 59 47 31 28 44 41 44
226 228 228 235 245 250 254 254 249 254 252 226 234 250 266 300 300 300 287 285 281 303 308 268 170 77 48 8 2 21 27 17 27 40 41 34 37 50 49 50 62 55 40
225 222 222 228 228 232 235 245 250 253 241 224 224 217 220 212 228 257 252 257 275 256 323 105 81 125 360 5 34 26 10 17 2 7 23 36 46 56 54 57 61 54 352
235 226 223 228 229 229 230 227 231 232 231 232 236 230 221 216 231 248 208 226 199 187 160 147 165 134 199 284 195 325 58 295 331 17 353 5 13 35 26 20 357 343 322
227 219 229 231 232 238 233 231 224 218 221 216 221 228 222 213 205 196 191 200 198 176 194 177 175 187 210 205 197 175 141 33 315 21 8 322 18 345 345 334 317 297 91
229 229 228 214 234 233 238 242 238 220 229 226 220 210 213 217 212 214 201 131 35 59 177 171 172 197 175 198 162 155 178 156 197 316 29 312 6 327 344 337 320 83 77
223 225 229 226 233 236 231 232 231 216 226 240 234 218 207 211 212 205 204 212 202 215 119 149 161 175 166 163 180 179 178 162 47 25 29 183 3 297 336 323 203 49 10
234 223 218 213 216 246 227 225 217 202 219 232 227 224 217 218 218 214 193 209 211 231 160 146 150 150 152 155 160 124 164 113 242 233 17 114 345 291 287 281 304 355 4
243 228 241 222 225 245 221 223 217 201 224 225 222 226 229 215 221 218 193 191 203 211 186 145 144 150 119 138 121 150 152 145 149 338 236 116 323 360 337 271 288 325 352